STARLINK-30483, 57914

Orbit data source: Space-Track

STARLINK-30483, 57914 is a payload satellite owned by SpaceX/Seattle (US) in LEO that was launched on Sun, 24 Sep 2023 UTC via an FALCON 9 launch vehicle from the Air Force Eastern Test Range (AFETR). Payload-class satellites include a variety of spacecraft equipped with specific instruments for various scientific and technological missions. These include communications satellites like Starlink; space stations such as the ISS; scientific satellites like the Hubble; Earth observation satellites from companies like Planet Labs, Umbra, and HawkEye 360; GPS; miniature CubeSats for education and research; and military/defense satellites.

Loading next visibility...
Identifier
57914, 2023-147B
Orbit
LEO
Country
Flag of USUS
Related business
Manufacturer
SpaceX/Seattle
Mission
Operational Commercial Communications
Bus & Motor
STARLINK V2M, Unknown motor
Mass
730 kg wet, ~700 kg dry
Launch date (UTC)
2023-09-24 (3 years ago)
Launch vehicle
FALCON 9
Launch site
Air Force Eastern Test Range (AFETR)
Object type
Payload
Rocket body
Debris
Shape & HBR
Box + 2 Pan, 17.7 m
Radar Cross Section
33.884 m², Large (>1 m²)

Expand to show TLE details & history
Last TLE update: 3 days ago

TLE from 3 days ago
0 STARLINK-30483
1 57914U 23147B   26170.91820412  .00001403  00000-0  60504-4 0  9993
2 57914  43.0024 322.2957 0001167 269.3060  90.7658 15.27584928153940
Epoch: 2026-06-19T22:02Z
TLE epoch observation values (Epoch: 2026-06-19T22:02:12.835Z)
Latitude
-0.00004°
Longitude
83.60189°
Altitude
482.821 km
Speed
7.626 km/s
True Right ascension
21h 29m 10s
True Declination
0° 00' 00"
Sunlit
Object was in full shadow at epoch
Visualization orbit readout
Latitude
Unknown
Longitude
Unknown
Altitude
Unknown
Speed
Unknown
Apparent Right ascension
Unknown
Apparent Declination
Unknown
Sunlit
N/A
Visualization observer readout
Local Sidereal Time
21:33:26
Azimuth
Unknown
Elevation
Unknown
Doppler factor
Unknown
Orbital elements
Apogee altitude
485.78 km
Perigee altitude
484.178 km
Semi-major axis
6,863.116 km
Eccentricity
0.00012
Inclination
43.0024°
RAAN
322.2957°
Arg. of periapsis
269.306°
True anomaly
90.77917°
Mean anomaly
90.7658°
Eccentric anomaly
90.77249°
Mean motion
3.81734 °/min
Orbital period
94.31 mins
BSTAR
0.000060504
Loading maneuver chart data...
Computing Atmospheric mass density...

Documentation

Showing up to 5 results
|